FABIEND Weather Reports


time (UTC)temp
C
wind
direction
speed
KPH
gust
KPH
rain 1hr
cm
rain 24hr
cm
rain mn
cm
humidity
%
barometer
mb
20260505164602 11 157 3.2 9.7 0.18 4.22 3.71 88 1009.3
20260505163003 11 174 3.2 11.3 0.23 4.19 3.68 88 1009.4
20260505161603 11 223 6.4 12.9 0.23 4.19 3.68 89 1009.6
20260505160104 12 211 6.4 11.3 0.18 4.11 3.61 89 1010.0
20260505153111 13 74 1.6 6.4 0.15 4.09 3.45 91 1009.9
20260505151502 13 201 0.0 8.0 0.18 4.06 3.43 91 1009.7
20260505150117 13 243 1.6 8.0 0.33 4.04 3.43 90 1009.6
20260505130103 18 146 6.4 19.3 0.00 4.65 3.10 62 1009.3
20260505124501 18 117 4.8 14.5 0.00 5.03 3.10 67 1009.5
20260505123114 18 236 4.8 20.9 0.00 5.03 3.10 63 1009.5
20260505121603 18 100 4.8 16.1 0.00 5.03 3.10 66 1009.6
20260505114502 -17 156 1.6 12.9 0.00 5.54 3.10 1010.0
20260505113102 -17 25 0.0 6.4 0.00 5.54 3.10 1010.1
20260505111509 16 85 0.0 12.9 0.00 5.54 3.10 82 1010.4
20260505101602 15 319 0.0 3.2 0.00 6.05 3.10 90 1010.4
20260505100110 15 140 0.0 6.4 0.00 6.05 3.10 94 1010.3
20260505094608 14 51 4.8 9.7 0.00 6.40 3.10 95 1010.6
20260505093003 13 49 0.0 8.0 0.00 6.40 3.10 95 1010.5
20260505091603 13 59 0.0 4.8 0.00 6.40 3.10 95 1010.5
20260505090111 13 36 1.6 6.4 0.03 6.40 3.10 96 1010.3
20260505084503 13 13 3.2 6.4 0.15 6.63 3.10 96 1010.3
20260505083110 12 217 0.0 0.0 0.36 6.63 3.10 96 1010.1
20260505081503 12 217 0.0 0.0 0.51 6.63 3.10 97 1010.0
20260505080002 11 217 0.0 0.0 0.61 6.71 3.07 96 1009.9
20260505074603 11 217 0.0 3.2 0.58 6.55 2.92 96 1010.0
20260505073003 11 217 1.6 4.8 0.56 6.35 2.72 96 1010.1
20260505071604 11 151 3.2 4.8 0.53 6.22 2.59 96 1010.2
20260505064503 11 151 1.6 8.0 0.84 5.99 2.34 96 1010.0
20260505063105 11 259 1.6 9.7 0.79 5.82 2.18 96 1009.9
20260505061507 11 243 3.2 8.0 0.66 5.69 2.03 96 1009.8
20260505060002 11 146 0.0 4.8 0.46 5.46 1.80 96 1009.8
20260505054604 11 207 0.0 6.4 0.18 5.18 1.52 96 1009.7
20260505053012 11 360 0.0 1.6 0.05 5.03 1.37 96 1009.5
20260505051603 11 360 0.0 3.2 0.05 5.03 1.37 96 1009.6
20260505050128 11 360 0.0 0.0 0.00 5.00 1.35 96 1009.6
20260505041502 11 360 0.0 3.2 0.03 5.00 1.35 96 1009.1
20260505040003 11 360 0.0 3.2 0.03 5.00 1.35 96 1009.2
20260505034602 11 360 0.0 4.8 0.05 5.00 1.35 96 1009.2
20260505033003 11 360 0.0 0.0 0.18 5.00 1.35 96 1009.4
20260505031602 11 360 0.0 0.0 0.20 4.98 1.32 96 1009.7
20260505024502 11 360 0.0 0.0 0.23 4.93 1.27 96 1009.9
20260505023102 11 360 1.6 4.8 0.20 4.83 1.17 96 1010.2
20260505021504 11 360 1.6 4.8 0.36 4.78 1.12 96 1010.1
20260505020004 11 336 0.0 3.2 0.46 4.78 1.12 96 1010.0
20260505014631 11 336 3.2 8.0 0.51 4.72 1.07 96 1010.2
20260505013002 11 254 4.8 6.4 0.51 4.62 0.97 96 1010.5
20260505011502 11 169 1.6 4.8 0.38 4.42 0.76 96 1010.7
20260505010002 11 169 0.0 3.2 0.41 4.32 0.66 96 1010.8
20260505004602 11 169 0.0 6.4 0.43 4.22 0.56 96 1010.8
20260505003003 11 42 0.0 3.2 0.33 4.11 0.46 96 1010.6
20260505001633 11 42 3.2 6.4 0.25 4.04 0.38 96 1010.5
20260505000139 11 275 1.6 4.8 0.15 3.91 0.25 95 1010.7
20260504234502 11 238 0.0 11.3 0.00 3.78 0.13 96 1011.0
20260504233109 11 217 0.0 0.0 0.03 3.78 0.13 96 1010.8
20260504231502 11 217 0.0 0.0 0.05 3.78 0.13 95 1010.9
20260504224503 11 258 1.6 8.0 0.15 3.78 0.13 95 1011.0
20260504223103 11 343 3.2 9.7 0.20 3.76 0.10 95 1011.2
20260504221504 11 296 4.8 9.7 0.20 3.71 0.05 95 1011.2
20260504220003 11 236 3.2 6.4 0.18 3.66 3.66 95 1011.3
20260504214503 11 192 0.0 1.6 0.18 3.63 3.63 95 1011.9
20260504213148 11 192 0.0 0.0 0.13 3.56 3.56 95 1012.2
20260504211510 11 192 0.0 3.2 0.10 3.53 3.53 95 1012.5
20260504210005 11 192 0.0 0.0 0.05 3.48 3.48 96 1012.7
20260504204502 11 192 1.6 3.2 0.03 3.43 3.43 96 1012.6
20260504201505 11 313 0.0 3.2 0.00 3.43 3.43 96 1012.3
20260504200003 11 313 0.0 4.8 0.00 3.43 3.43 95 1012.3
20260504194503 11 313 0.0 0.0 0.00 3.43 3.43 95 1012.3
20260504193112 11 313 0.0 0.0 0.00 3.43 3.43 95 1012.3
20260504191503 11 313 0.0 0.0 0.00 3.43 3.43 96 1012.2
20260504190003 11 313 0.0 0.0 0.05 3.43 3.43 95 1012.2
20260504184608 11 313 0.0 0.0 0.08 3.43 3.43 95 1012.4
20260504183002 11 29 0.0 0.0 0.15 3.43 3.43 95 1012.3
20260504181503 11 13 0.0 0.0 0.15 3.43 3.43 95 1012.4
20260504180006 11 30 0.0 0.0 0.10 3.35 3.35 95 1012.8
20260504174502 11 40 0.0 0.0 0.08 3.33 3.33 95 1013.0
20260504173118 11 40 0.0 0.0 0.03 3.28 3.28 95 1013.0
20260504171503 11 338 0.0 6.4 0.05 3.25 3.25 95 1013.1